Temp
4 4 5 6 7 7 8 8 8 8 8 8 7 7 9 11 12 12 12 11 11 13 13 13 13 14 14 14 15 15 16 16 16 17 16 16 16 16 17 17 17 17 17 17 17 17 18 18 18 19 20 19 19 19 18 18 19 20 19 18 17 17 18 18 17 17 18 18 18 17 17 18 19 18 15 15 16 17 18 18 18 18 16 16 17 18 16
3 4 5 6 7 7 8 9 9 8 7 7 7 8 10 10 10 11 11 12 13 12 11 11 12 12 13 14 14 14 15 15 15 15 15 14 14 15 16 16 16 16 16 16 16 16 17 18 17 18 19 18 18 18 18 18 19 20 20 19 18 18 18 18 17 17 17 18 18 18 18 18 18 17 15 15 15 16 16 15 17 18 16 16 18 18 15
3 3 5 6 7 8 8 9 9 9 8 8 8 8 9 9 10 10 10 11 11 10 9 10 10 11 12 13 13 13 14 15 14 14 14 13 13 13 15 14 14 14 14 15 14 14 16 17 16 16 17 17 18 18 18 18 18 18 18 18 19 18 16 17 18 17 16 17 17 18 18 17 17 16 16 15 15 16 17 17 19 19 15 14 18 17 14
3 3 4 6 7 8 8 9 10 10 9 9 9 8 8 10 10 10 10 9 9 9 9 9 10 10 11 12 12 11 12 14 14 14 13 13 13 12 12 12 13 14 14 15 14 13 14 15 15 14 15 16 17 16 18 18 17 17 17 16 17 17 14 14 17 16 16 17 17 16 16 17 17 17 17 16 15 16 17 18 19 18 15 15 15 14 13
3 3 4 6 7 8 8 9 9 10 10 10 10 8 8 10 9 8 9 9 8 8 8 8 9 10 10 11 11 10 11 12 14 14 13 13 12 12 12 11 12 13 13 14 15 13 13 14 14 13 13 14 15 16 17 18 17 18 18 16 17 18 15 14 15 14 14 14 15 15 16 16 16 16 17 16 16 17 19 19 17 16 17 16 13 12 12
3 3 4 5 6 7 8 8 9 10 11 11 11 10 8 9 9 8 8 8 8 8 7 7 8 9 10 10 10 10 10 11 12 13 13 13 12 13 12 11 11 10 11 14 14 12 13 14 13 12 13 13 15 16 17 16 16 17 18 17 18 18 16 14 14 14 13 13 13 14 15 14 13 13 14 15 16 17 18 17 14 15 18 17 12 11 11
3 3 4 5 6 7 7 8 9 10 10 11 10 9 8 8 9 8 8 8 8 7 7 6 7 8 9 9 9 9 10 10 11 11 12 13 12 12 12 11 10 10 11 12 12 11 13 13 12 12 12 12 14 16 16 16 16 16 17 17 16 16 16 14 14 14 13 13 13 13 14 13 11 11 10 12 14 13 13 12 10 11 14 12 10 10 9
3 3 4 5 6 7 7 8 8 9 11 11 8 7 7 7 7 8 8 8 8 8 8 7 7 8 7 8 9 9 9 10 11 10 10 11 11 11 11 11 11 10 10 11 11 10 11 12 12 12 12 13 13 14 14 15 15 15 16 15 16 16 15 14 15 14 12 12 12 12 14 14 13 11 10 10 12 12 11 10 9 10 10 8 8 10 8
3 3 4 5 6 7 7 8 8 8 10 9 7 6 5 6 6 6 7 8 7 7 8 8 7 7 7 7 8 8 8 9 10 10 10 10 9 9 10 10 11 11 11 11 11 10 10 11 11 11 12 12 13 13 13 13 14 15 15 15 16 17 14 13 15 14 12 12 12 12 13 14 13 12 11 11 12 12 10 9 9 11 10 9 10 10 8
3 3 3 5 6 7 7 7 7 8 9 7 5 5 5 5 5 5 7 8 7 6 7 8 8 7 7 7 7 7 8 9 10 11 10 10 9 9 9 10 11 12 12 11 11 10 10 10 11 11 11 11 12 12 12 12 13 14 15 14 14 15 14 14 14 14 12 12 12 12 14 14 13 12 10 9 9 9 10 9 8 8 9 10 12 10 8
3 3 3 5 6 7 7 7 7 8 8 6 5 5 4 4 5 5 8 9 7 5 6 7 7 7 7 7 7 7 8 8 9 10 10 10 10 9 9 10 11 12 11 11 10 9 9 10 10 10 10 11 11 11 11 12 12 12 14 15 14 13 14 15 14 14 13 12 11 12 13 14 12 9 8 8 9 9 10 9 7 7 8 9 9 8 7
2 3 3 4 6 7 7 7 7 7 7 6 6 5 4 4 4 6 9 8 6 6 7 6 6 6 7 7 7 7 7 8 8 9 9 9 9 9 9 9 10 11 11 9 8 9 11 11 11 11 11 12 12 12 12 13 12 11 12 14 15 14 14 14 13 13 13 11 12 13 13 11 9 7 7 8 8 8 8 7 7 7 7 7 7 7 8
2 2 3 4 5 6 7 7 8 8 7 7 6 5 5 5 5 7 8 7 6 6 6 6 6 6 6 6 7 7 7 7 7 8 9 9 9 9 9 8 9 10 9 8 8 11 13 12 12 13 13 14 14 14 13 12 12 12 11 12 14 15 15 13 12 12 12 12 12 12 11 8 7 7 8 8 8 9 9 9 8 7 7 7 7 7 7
2 2 3 3 4 6 7 7 7 8 8 8 7 6 7 7 6 7 7 7 6 5 5 6 6 6 6 6 6 7 7 7 8 9 8 8 8 9 9 9 9 8 8 8 10 12 12 12 13 13 13 14 14 14 13 12 11 11 11 11 12 14 15 14 13 11 11 11 9 8 8 8 7 8 8 8 9 9 9 9 8 7 7 7 7 7 7
2 2 2 3 4 6 7 7 7 8 8 8 8 8 8 8 7 6 5 7 7 6 5 6 6 6 7 6 6 6 7 7 7 8 8 7 8 9 8 8 8 7 8 10 11 11 11 12 13 13 13 13 13 12 13 13 12 11 10 9 11 13 14 15 14 11 9 9 8 7 9 9 9 8 8 8 7 7 8 9 8 8 7 7 7 7 7
2 2 2 3 4 6 6 7 7 7 8 8 8 8 8 8 8 7 5 7 8 7 6 6 6 6 7 7 6 6 6 6 6 7 8 8 8 8 8 7 7 7 9 10 10 10 11 11 11 11 11 11 11 11 12 12 12 12 11 10 11 11 11 13 14 11 9 11 11 9 9 9 8 8 8 7 6 6 8 9 9 7 6 6 6 7 7
2 2 2 3 4 6 6 7 7 7 8 8 8 8 8 8 9 9 7 7 7 7 7 7 6 6 6 6 6 6 6 6 5 6 7 7 7 7 7 7 7 8 9 10 9 9 10 9 9 9 9 9 10 11 11 10 10 11 11 10 11 11 10 11 12 11 10 11 11 8 8 8 7 7 8 7 6 6 9 10 9 7 6 5 6 7 7
2 2 2 3 4 5 6 7 7 7 7 8 8 8 8 8 9 9 8 8 7 7 7 7 7 7 6 6 6 6 6 5 5 5 6 6 6 6 6 6 7 8 8 9 9 8 8 8 8 8 9 9 9 10 10 9 9 8 9 9 9 9 8 8 9 9 9 10 10 7 6 7 6 7 7 6 6 7 9 9 7 5 5 5 5 6 7
2 2 2 3 4 5 6 6 7 7 7 8 8 8 8 8 9 9 8 8 7 7 7 7 7 7 7 6 7 6 5 5 5 5 6 7 6 6 5 5 6 7 7 7 8 7 7 8 7 7 8 9 8 9 8 8 8 8 8 8 8 8 7 7 7 7 7 8 8 7 6 6 6 6 6 7 8 8 8 6 5 5 6 6 5 6 6
2 2 2 2 3 5 6 6 7 7 7 7 8 8 8 8 9 9 9 8 8 7 7 7 7 8 7 7 7 7 6 6 6 6 6 6 6 6 6 7 6 6 6 7 7 6 7 7 7 7 8 8 8 8 8 7 7 7 7 7 7 8 7 7 6 6 6 6 7 7 7 6 5 5 6 7 8 7 6 5 5 6 6 6 6 6 5
2 2 2 2 3 4 6 6 6 7 7 7 8 8 8 8 9 9 9 9 8 8 8 8 8 8 8 8 8 8 7 7 7 7 6 6 5 6 7 6 6 5 5 6 6 6 6 6 6 6 7 7 7 8 7 7 7 7 7 8 8 7 7 7 6 6 7 8 7 7 6 5 5 6 7 6 6 6 6 6 6 6 6 6 6 6 6
2 2 2 2 3 4 5 6 6 7 7 7 8 8 8 8 9 9 9 9 9 8 8 8 8 9 9 9 8 8 8 8 8 7 7 7 6 5 6 6 6 6 5 6 6 6 6 6 6 6 7 7 7 7 6 7 7 7 7 7 7 7 7 7 6 4 5 6 6 5 5 4 5 5 6 5 6 6 6 6 6 6 6 6 6 6 6
2 2 2 2 3 4 5 6 6 7 7 7 7 7 7 8 9 9 10 9 8 8 8 9 9 9 9 9 9 9 9 9 9 8 8 8 7 6 6 6 6 6 6 6 6 6 6 6 6 6 6 6 6 6 6 6 7 6 6 7 6 6 6 6 5 4 4 5 4 4 4 4 4 5 5 5 5 5 5 6 6 6 6 5 5 6 6
2 2 2 2 3 4 5 6 6 6 7 7 7 7 7 7 8 9 9 8 7 8 8 8 8 8 8 8 9 9 9 9 9 9 8 8 8 7 6 6 6 6 7 6 4 5 6 6 5 6 6 6 6 6 6 6 6 6 6 7 6 6 6 6 5 5 5 5 4 4 4 4 5 5 5 5 5 5 5 5 5 6 5 5 5 5 5
2 2 2 2 3 4 5 5 6 6 7 7 7 7 7 7 7 8 9 8 7 7 8 8 8 8 8 9 9 9 9 9 9 9 9 9 8 8 7 6 6 6 6 4 4 5 7 6 6 6 6 6 6 6 6 6 6 6 6 7 6 6 6 6 5 5 5 5 4 4 5 5 5 5 5 5 6 5 5 5 5 5 4 4 3 3 3
2 2 2 2 3 4 5 5 6 6 6 7 7 7 7 7 7 7 7 6 6 7 7 7 8 8 9 9 9 9 9 9 9 9 9 9 9 8 8 7 6 6 4 3 5 6 6 6 6 6 6 6 6 6 6 6 6 6 6 6 5 6 6 5 5 4 4 4 4 4 4 5 5 5 5 5 5 5 5 5 4 4 4 3 2 1 1
1 1 2 3 4 4 5 5 6 6 6 6 7 7 7 7 7 7 7 6 6 7 7 7 8 8 7 8 9 9 9 9 9 9 9 9 9 9 9 8 7 7 6 6 6 6 6 6 6 6 5 5 5 5 5 5 5 6 7 6 5 6 6 5 5 5 5 5 5 5 5 5 5 5 5 5 4 5 5 4 4 5 4 3 3 1 0
1 1 2 3 4 4 5 5 6 6 6 6 7 7 7 7 7 6 7 7 6 6 7 7 7 7 7 8 9 9 9 9 9 9 9 9 9 9 8 7 7 7 8 7 7 6 7 7 6 5 5 6 6 5 5 5 5 6 6 5 5 6 6 6 6 6 6 6 5 4 5 6 5 5 5 5 4 4 5 5 5 4 3 2 2 2 2
1 1 2 3 4 4 5 5 6 6 6 6 6 7 7 7 7 6 7 7 6 6 6 7 6 6 7 8 8 9 9 9 9 9 9 9 9 8 7 6 6 6 7 6 6 7 7 6 6 6 6 6 6 6 5 5 5 6 6 6 5 5 5 6 7 7 6 6 5 4 5 6 5 4 5 4 2 3 5 5 4 3 1 1 1 2 2
2 2 2 3 4 4 5 5 6 6 6 6 6 6 6 7 7 7 7 7 6 6 6 7 7 7 7 7 7 8 9 9 9 9 9 8 8 7 6 6 5 5 6 7 6 6 6 6 6 6 5 5 6 6 5 5 5 6 6 6 6 5 4 5 6 6 6 6 5 4 5 5 4 3 3 2 1 2 3 3 2 2 2 1 1 1 1
2 2 2 3 4 5 5 6 6 6 6 7 7 6 6 6 7 7 6 6 7 6 6 6 7 7 7 7 8 8 8 8 8 8 7 7 7 6 6 6 6 5 7 7 6 5 6 6 7 7 6 5 6 6 5 5 5 6 6 7 6 6 5 5 5 5 5 5 4 4 4 3 3 2 3 2 2 1 2 2 2 2 2 2 2 2 2
2 2 3 3 4 5 5 6 6 7 7 7 7 7 6 6 6 6 6 7 7 6 6 7 7 6 7 7 7 7 7 7 7 7 7 7 7 7 6 6 5 5 6 7 6 6 5 5 6 6 6 5 6 6 5 5 6 7 7 7 7 6 5 5 5 4 4 4 4 4 4 4 3 4 4 3 1 1 1 2 2 3 2 2 2 2 1
2 3 3 4 5 5 6 6 6 7 7 7 7 6 6 6 6 6 6 7 6 5 5 6 6 5 6 6 7 7 8 8 7 7 7 7 6 6 7 6 5 5 6 6 6 6 4 4 6 6 5 4 5 6 6 6 7 8 7 7 6 6 5 4 4 4 4 4 4 5 5 5 4 3 3 2 1 1 2 2 2 2 1 1 1 1 1
3 3 4 5 5 6 6 6 7 7 7 7 7 6 6 6 6 6 6 6 6 5 5 6 6 6 6 6 6 7 7 8 7 7 7 6 5 6 7 6 6 6 6 5 5 5 4 4 6 6 5 4 4 5 6 6 7 7 6 5 4 4 4 4 4 4 4 3 3 3 3 2 2 2 2 2 1 1 1 2 1 1 2 2 1 1 1
4 4 5 5 6 6 6 6 7 7 7 7 7 6 6 6 6 6 6 6 6 6 6 5 5 6 6 6 7 7 7 7 6 6 6 6 5 5 6 6 7 6 6 5 5 5 5 5 6 6 5 4 4 5 6 7 7 7 6 5 4 4 4 4 4 4 4 3 3 3 1 0 2 3 3 3 2 1 1 1 1 1 2 2 2 0 -0
5 5 6 6 6 6 6 6 6 6 6 6 6 6 6 6 6 6 6 6 6 7 6 5 5 6 6 6 6 6 6 7 6 5 5 6 5 5 5 7 7 5 4 5 5 5 5 5 5 5 4 4 5 7 7 7 8 7 6 5 4 4 5 5 5 5 3 2 3 3 2 2 3 3 3 3 2 1 1 2 1 1 2 2 2 0 -1
6 6 6 7 6 6 6 6 6 6 5 6 6 6 6 6 6 6 6 6 6 6 5 5 5 6 5 5 6 6 6 6 6 6 6 6 5 5 5 6 6 4 4 5 6 5 4 4 5 5 5 5 7 7 7 6 7 6 6 5 3 3 4 5 4 4 4 3 3 3 2 2 3 3 2 3 3 1 2 2 2 2 2 2 2 1 0
6 6 6 6 6 6 6 5 5 5 6 6 6 6 6 5 6 6 5 5 5 5 4 4 6 5 4 5 6 6 6 6 5 5 6 5 5 5 5 5 5 4 4 5 5 4 4 5 4 4 5 6 6 6 6 5 5 4 4 5 4 3 4 4 4 4 5 4 4 3 2 2 3 2 2 3 3 2 2 2 1 1 1 0 1 1 0
6 6 5 5 6 5 5 5 5 5 6 6 6 6 6 5 6 6 5 4 5 5 4 5 6 5 5 6 7 5 6 6 6 6 6 5 5 5 5 5 5 4 4 4 4 4 5 5 3 3 5 7 7 7 5 4 3 3 3 4 3 2 2 3 3 4 5 4 4 4 3 2 3 3 3 3 3 2 1 0 1 1 0 0 0 -0 -1
5 4 3 4 4 5 5 5 5 6 6 6 5 6 6 5 6 6 5 5 6 5 4 5 5 4 4 6 7 6 5 6 6 6 6 5 5 5 5 5 5 4 3 4 4 4 5 5 3 3 5 7 8 7 5 4 4 4 3 2 1 0 1 1 2 2 3 2 2 2 2 2 2 2 2 3 3 3 2 1 1 1 1 1 1 1 0
3 2 2 3 3 4 4 5 5 5 5 5 5 5 6 6 5 5 5 6 6 6 5 5 6 5 4 5 6 6 6 5 4 4 5 5 4 4 5 4 4 3 3 3 4 4 5 5 4 4 5 7 7 6 5 4 4 4 2 1 -0 -0 0 1 1 1 2 1 1 1 2 2 1 1 2 2 2 2 2 1 1 2 2 2 2 2 2
2 3 3 2 2 3 4 5 5 5 5 5 5 5 5 5 5 5 6 6 6 6 6 6 6 6 6 5 6 6 5 5 4 5 5 5 4 4 4 4 3 4 4 4 3 4 4 4 3 4 6 7 7 5 4 4 4 4 3 1 -0 0 0 0 0 1 2 2 2 2 2 2 2 2 3 3 2 2 2 2 2 3 3 3 3 3 2
4 3 3 2 2 3 4 4 5 5 5 5 5 5 4 5 5 5 6 6 6 6 7 6 6 6 6 5 6 5 5 5 5 5 5 5 4 4 4 3 3 4 4 3 4 4 4 4 4 5 6 6 5 4 3 3 4 4 3 1 0 1 1 0 1 2 3 3 3 3 3 3 3 3 3 3 3 3 3 3 3 3 3 3 3 2 2
4 3 3 3 4 4 5 5 5 5 5 4 5 4 5 5 5 4 5 6 6 6 6 6 6 6 6 5 5 5 5 5 5 5 5 5 4 4 4 4 4 3 3 3 4 3 3 3 4 5 6 5 5 4 3 3 4 5 4 2 1 1 0 0 1 2 2 2 3 3 3 3 4 4 3 3 3 3 3 3 4 4 3 3 2 2 2
4 4 4 4 5 5 5 5 5 5 5 4 5 5 4 4 5 5 5 6 6 6 6 6 6 6 6 5 5 5 5 5 5 5 5 4 4 3 3 4 4 3 3 3 3 3 2 4 5 6 5 6 5 5 3 2 2 3 4 4 2 1 -0 0 1 1 1 2 3 3 3 3 4 3 4 4 4 3 3 3 4 3 3 3 2 2 2
3 3 4 5 5 5 4 5 5 5 5 5 5 5 5 5 5 5 5 5 6 6 6 6 6 7 6 5 5 5 5 5 5 5 4 4 4 4 4 3 4 3 3 2 2 3 4 5 6 6 6 6 6 5 4 2 2 2 3 4 4 2 0 -0 0 0 1 2 3 2 3 3 3 4 4 4 4 4 4 4 4 3 3 3 2 2 2
3 3 3 5 5 4 4 5 5 4 5 5 5 5 5 4 4 5 5 4 5 5 5 5 5 5 5 5 5 5 5 5 5 5 4 4 4 4 4 3 3 3 3 2 3 4 5 6 6 6 6 6 6 5 4 4 4 4 3 4 4 3 0 -1 -0 0 1 2 2 2 2 3 3 4 4 4 4 4 4 4 4 4 3 3 3 2 2
3 3 3 5 5 4 5 4 4 4 4 4 4 4 3 3 4 5 5 4 4 5 5 5 5 6 5 5 4 4 4 4 4 4 4 4 4 4 3 3 3 2 3 3 4 5 5 6 6 6 6 6 5 5 5 4 5 5 5 4 4 3 1 -0 -1 0 1 2 1 1 2 3 3 4 4 3 4 4 4 4 4 4 3 3 2 2 2
3 2 3 3 4 4 3 3 3 4 5 3 3 3 3 3 4 5 4 4 4 5 5 5 5 5 5 4 4 4 4 4 4 4 4 3 3 3 3 2 3 3 3 4 4 5 6 6 6 6 6 6 6 5 5 5 5 4 3 3 3 2 1 0 0 1 1 2 2 2 2 3 3 3 3 3 3 4 4 4 4 4 3 3 3 2 2
3 3 3 3 3 4 3 3 3 5 5 4 4 4 4 4 4 4 4 4 6 6 4 4 5 5 4 4 4 3 3 4 4 3 3 3 3 3 2 2 3 4 4 5 5 6 6 6 6 6 6 6 6 6 6 5 4 3 1 1 1 2 1 1 1 1 1 2 3 3 3 3 3 3 3 3 4 4 4 4 4 4 3 3 3 2 2
2 2 2 3 3 4 4 4 4 4 4 4 4 4 4 4 4 4 4 4 5 5 4 4 5 4 3 3 3 3 3 4 3 3 3 3 3 3 3 3 4 5 6 6 5 5 5 5 5 5 6 6 6 6 5 3 2 1 1 1 1 1 2 2 2 1 2 3 3 3 2 3 4 4 4 4 4 3 3 3 3 4 3 3 3 3 2
2 2 2 3 2 3 3 3 3 3 3 3 3 3 3 4 4 4 3 4 4 4 4 4 4 3 3 3 3 3 3 3 3 2 3 3 3 3 4 5 5 5 6 6 6 5 4 4 4 4 5 5 5 4 3 1 1 1 2 2 1 1 1 1 2 2 2 2 2 2 3 4 4 4 3 3 2 2 2 3 4 4 3 3 3 3 2
Height
800 797 793 789 785 781 776 772 768 763 757 752 750 749 748 748 749 747 743 741 741 741 742 744 744 743 742 740 738 736 734 734 733 731 733 734 732 732 732 729 729 730 729 729 730 730 729 730 729 725 724 726 725 722 723 725 721 721 727 732 733 735 740 750 758 756 752 747 744 746 745 742 744 751 760 763 759 757 756 758 762 769 779 782 777 779 786
801 798 794 789 785 781 777 772 768 764 760 756 754 752 753 754 753 750 746 743 742 747 751 753 751 748 745 742 740 738 736 736 736 735 737 738 738 737 733 731 732 732 732 732 734 734 731 731 733 729 727 727 725 722 722 723 723 722 726 728 729 736 743 750 759 765 763 758 753 750 746 745 749 756 762 764 763 761 763 766 763 765 779 779 771 777 788
802 799 794 790 786 782 777 773 768 764 761 758 755 755 756 755 753 753 751 748 749 756 761 760 757 754 750 747 747 746 741 739 739 738 740 742 743 741 737 736 737 736 736 736 737 738 733 732 736 736 733 730 727 725 723 724 728 728 727 726 727 738 750 750 754 766 770 767 762 756 752 753 756 759 759 762 765 759 758 762 758 762 782 784 771 778 790
803 799 795 791 787 783 779 774 768 764 761 758 756 756 757 756 758 760 758 755 759 763 763 760 758 758 756 753 753 754 749 743 739 739 742 743 743 744 743 742 739 737 738 738 739 741 738 735 739 743 742 735 732 731 726 726 731 731 731 732 732 743 758 758 754 758 761 757 756 756 755 754 756 757 756 760 765 762 758 759 758 763 779 784 782 788 793
804 800 797 793 789 785 780 775 771 766 761 758 757 758 759 761 768 773 768 764 767 766 763 763 763 761 760 758 759 760 757 750 743 740 743 745 745 746 748 747 744 744 744 739 740 746 744 740 744 750 750 744 738 735 730 729 731 730 731 734 734 741 757 763 760 763 767 764 761 760 757 757 759 759 758 760 763 761 755 757 766 770 771 779 790 794 796
805 802 798 794 791 787 782 778 774 768 764 760 758 761 764 765 771 775 772 772 776 773 771 773 771 766 763 762 764 764 759 756 753 748 745 745 746 746 749 753 754 756 752 743 746 753 748 746 752 754 752 749 743 736 733 733 734 733 734 734 735 741 754 762 763 766 770 770 768 764 762 769 775 773 770 765 763 762 759 765 779 775 763 774 793 800 805
806 803 799 796 793 789 785 781 777 772 769 764 760 765 770 770 772 773 770 774 779 779 779 780 776 772 770 768 768 767 765 762 760 756 750 749 751 751 754 758 759 759 754 748 755 762 754 753 759 758 755 753 749 743 739 738 738 737 738 738 739 745 757 764 763 767 772 772 773 771 768 774 783 787 789 780 772 776 778 784 796 790 782 794 802 806 816
808 804 801 798 795 791 788 784 780 776 772 767 766 772 777 777 778 777 773 775 778 777 779 780 778 777 777 776 774 772 770 767 763 762 761 761 762 760 760 762 761 761 758 755 761 766 763 761 762 761 759 755 752 752 749 746 744 741 741 743 741 745 760 765 762 771 782 780 779 778 771 772 779 788 796 790 780 784 789 795 801 797 801 815 811 808 820
809 806 803 800 797 794 791 787 783 779 775 771 773 779 781 781 782 781 778 780 782 781 779 779 779 783 785 785 782 778 776 772 767 766 768 770 771 769 766 764 762 760 758 758 763 766 766 765 762 761 761 758 755 755 754 753 750 746 746 747 742 743 760 768 763 772 786 785 783 781 775 776 781 784 790 792 788 788 794 801 802 797 802 811 805 807 820
811 807 804 802 799 796 794 790 787 783 779 777 779 782 783 781 782 782 780 783 788 788 784 780 781 787 790 788 787 785 781 775 769 768 769 769 771 772 769 765 761 759 758 760 764 766 765 763 760 760 761 760 758 758 757 758 756 751 748 751 750 749 755 762 763 770 781 784 782 779 775 776 783 787 794 802 803 800 801 806 809 808 807 801 796 806 819
812 809 806 804 801 799 796 793 790 787 783 782 784 785 785 783 784 783 780 783 791 793 790 787 787 789 790 788 787 786 783 778 775 774 774 772 771 770 770 766 761 760 762 763 765 765 762 759 758 759 760 760 760 759 758 758 758 756 751 749 754 755 752 757 762 766 776 784 784 781 777 778 789 802 806 805 804 800 801 809 815 815 813 807 806 814 821
813 811 808 805 803 801 798 795 793 791 788 787 787 787 786 785 785 784 782 786 795 795 792 793 795 795 793 791 788 786 785 783 782 779 777 775 773 771 771 771 768 764 763 765 765 760 756 756 756 757 757 757 757 757 757 755 756 760 757 751 751 753 754 760 765 768 777 786 784 780 783 790 802 812 809 803 804 805 806 814 819 816 815 816 816 818 819
815 812 810 807 805 802 800 798 795 793 792 790 788 787 787 785 785 786 786 790 799 799 795 796 798 797 795 792 789 787 787 786 784 781 779 778 776 774 773 775 775 769 765 767 765 758 755 756 757 756 754 752 751 754 757 759 759 759 759 756 753 751 753 761 770 775 780 783 781 782 794 807 812 811 807 804 805 804 801 806 814 816 817 817 817 819 821
816 813 811 809 806 804 802 800 798 796 794 792 790 788 787 785 785 787 787 791 799 802 800 798 798 797 795 794 792 789 787 785 783 780 780 781 779 778 776 776 774 771 768 767 763 759 758 758 756 756 756 754 753 755 758 762 763 762 762 762 758 753 752 756 766 778 784 790 800 807 810 814 814 810 808 807 806 805 802 804 812 818 818 818 819 820 822
817 815 812 810 808 805 804 801 799 797 795 794 792 790 788 787 786 787 788 789 795 800 800 800 801 799 796 795 795 792 790 789 787 784 784 784 781 778 777 776 773 770 767 765 763 763 763 762 759 759 759 758 760 763 762 761 763 765 768 769 764 759 757 753 760 781 794 797 807 816 808 803 805 807 807 808 810 811 808 807 813 817 818 820 821 820 821
818 816 813 811 809 807 805 803 801 799 797 795 793 791 790 789 788 788 788 788 792 799 801 801 801 800 797 795 796 796 795 795 793 789 784 783 782 780 778 775 773 771 767 767 769 769 768 768 770 769 769 771 770 768 766 766 765 764 766 768 765 764 767 761 758 778 791 783 786 800 800 797 805 809 808 810 812 812 809 807 811 818 821 822 822 820 821
819 817 814 812 810 808 806 804 802 801 798 797 795 793 792 792 790 789 790 790 794 800 802 800 799 799 798 797 797 798 798 798 798 795 790 788 789 786 781 777 774 771 770 771 773 774 775 778 780 779 780 781 778 772 772 775 775 773 770 770 769 769 774 772 766 776 785 778 782 802 808 808 812 813 809 810 812 811 808 804 808 818 823 824 823 822 821
820 818 815 813 811 809 808 806 804 802 800 798 797 795 794 794 792 791 792 793 796 800 800 799 798 799 799 799 799 799 799 800 800 799 796 795 794 792 788 786 781 776 775 777 779 781 783 786 788 786 783 783 781 778 780 783 786 788 786 783 783 784 788 791 788 788 789 784 790 809 817 814 813 812 810 811 812 810 807 806 813 822 824 824 825 824 823
821 819 817 815 813 811 809 808 806 804 802 800 798 797 796 796 794 793 794 795 798 801 801 799 799 799 799 800 800 800 801 801 801 801 798 796 794 793 793 791 788 785 784 784 787 791 791 790 794 793 788 786 786 786 789 792 793 794 793 791 792 793 796 800 801 801 803 801 802 810 815 815 814 814 812 810 808 809 811 816 822 824 822 823 826 825 825
821 820 818 816 814 812 810 809 807 806 804 802 800 799 799 798 797 796 796 797 800 802 802 801 800 800 800 800 799 800 801 801 801 802 802 800 796 793 793 793 793 793 793 790 793 798 796 794 797 797 793 793 791 789 793 798 798 796 796 797 797 797 799 805 809 810 811 811 807 805 808 813 816 814 811 810 810 813 818 822 824 822 822 823 824 823 825
822 820 818 817 815 813 812 810 809 807 806 804 802 801 800 799 799 798 798 798 800 802 803 802 801 801 800 800 800 800 800 801 800 800 801 801 799 796 798 801 801 800 801 799 798 801 801 800 800 799 797 796 795 793 797 799 798 797 797 797 798 799 800 805 812 812 806 803 806 810 813 817 817 812 811 814 815 817 820 821 821 822 823 823 822 822 824
822 820 819 817 815 814 813 812 810 809 808 806 804 802 801 801 800 800 799 799 800 802 803 802 802 801 801 801 801 800 800 800 800 799 799 800 801 800 801 803 802 801 803 803 801 802 803 802 801 800 800 800 799 800 803 802 799 800 800 798 799 802 802 802 809 816 813 809 814 819 820 820 818 814 815 818 818 819 820 820 821 823 823 823 824 823 823
822 821 819 817 816 815 813 813 811 810 809 808 806 804 803 803 802 801 801 801 801 803 803 802 802 802 802 802 801 801 801 800 799 800 799 799 801 803 803 802 802 802 803 802 802 803 803 803 803 803 804 805 803 803 804 803 803 805 804 802 804 807 806 805 810 819 819 816 819 821 820 821 820 818 819 820 820 821 821 821 823 823 823 824 825 824 825
822 821 819 817 816 815 814 813 812 811 810 809 808 807 805 804 803 802 802 802 803 804 804 804 804 804 804 803 802 801 802 801 800 800 800 799 800 802 803 803 802 802 802 802 803 804 803 803 805 804 803 805 805 804 805 805 805 807 806 805 806 807 807 808 813 816 816 817 821 823 821 821 821 820 820 821 821 822 823 823 824 824 824 826 826 826 827
822 821 819 818 816 815 815 814 813 812 811 810 810 809 807 805 805 804 803 804 805 806 807 807 807 805 804 803 802 802 802 801 801 801 800 800 801 801 803 803 802 802 802 802 803 803 802 803 804 804 804 805 805 806 808 807 806 807 806 805 807 806 805 810 816 817 818 819 822 822 821 821 821 821 821 821 821 822 823 823 824 824 825 826 826 827 828
821 820 819 817 817 816 815 814 813 813 812 811 811 810 808 808 807 806 805 806 807 808 809 809 807 805 804 803 803 803 802 802 802 802 801 801 801 801 801 802 801 801 802 802 803 803 803 805 805 805 805 805 804 806 807 806 807 807 806 807 810 807 807 812 817 820 823 824 822 822 823 822 821 820 821 821 821 822 823 823 824 825 825 827 828 828 829
821 820 818 817 816 816 815 814 814 813 813 812 812 811 810 810 809 808 807 808 808 809 810 810 808 806 805 805 804 803 803 802 802 802 802 802 802 801 801 801 801 801 801 802 803 804 805 805 806 807 808 808 807 809 809 809 809 808 806 809 810 808 810 815 817 818 821 819 817 819 820 819 819 820 820 821 822 822 823 824 824 824 825 826 827 828 828
820 819 818 817 816 816 815 814 814 813 813 812 812 812 812 811 810 810 809 809 809 810 810 810 809 807 806 805 804 804 803 803 803 802 802 802 802 801 801 801 801 802 802 802 804 805 805 805 806 809 809 807 807 810 811 811 811 809 808 810 810 808 810 812 811 812 813 812 814 817 817 816 818 819 819 821 822 822 822 823 823 824 825 826 827 827 828
820 819 818 817 816 815 815 814 814 813 813 812 812 812 812 812 812 811 811 810 809 810 811 810 809 808 807 806 805 805 804 803 803 802 802 802 802 802 802 802 802 804 804 805 806 806 805 806 808 808 807 805 806 809 811 813 813 810 809 810 811 811 812 810 807 808 811 811 814 817 816 816 818 819 819 821 822 822 823 823 824 825 825 825 826 827 827
820 819 818 816 816 815 814 814 814 813 812 812 812 813 813 813 813 812 811 811 810 809 810 811 810 809 808 807 806 805 804 804 803 802 802 802 802 802 802 802 803 804 805 805 806 806 807 807 807 807 807 807 808 810 813 816 816 812 808 808 809 811 812 811 809 809 810 811 815 817 817 818 820 820 821 821 822 822 823 824 824 825 825 825 826 826 826
820 818 817 816 815 815 814 814 814 813 813 812 812 814 815 815 814 812 812 811 810 810 812 812 811 810 809 808 806 806 805 804 803 803 802 802 802 802 802 802 803 804 804 804 806 808 808 807 805 806 807 807 807 809 813 815 814 811 807 807 808 809 810 811 811 812 812 813 816 817 818 820 821 821 821 822 822 823 823 823 824 824 824 825 826 826 826
818 817 816 816 815 814 814 814 814 813 813 813 813 814 815 815 814 813 813 811 810 811 812 812 812 813 813 809 807 807 806 805 804 804 803 803 803 803 802 803 804 803 804 805 807 807 808 809 807 806 807 807 808 810 813 814 812 808 805 804 807 809 810 811 812 813 813 814 815 816 818 819 820 820 820 821 822 822 823 823 824 824 824 825 825 825 826
817 816 815 814 814 814 814 814 814 814 813 814 814 814 814 815 814 813 812 812 811 812 812 813 815 818 816 811 809 808 806 805 807 806 804 804 804 804 803 804 805 804 804 805 806 807 810 811 809 806 808 810 809 810 811 810 806 803 803 805 807 809 811 812 813 814 814 814 815 816 817 817 818 819 819 821 821 822 822 823 823 824 824 824 824 824 824
815 815 814 813 813 813 813 813 814 814 813 814 814 814 814 814 813 813 812 812 812 812 813 815 817 817 815 812 811 809 807 807 809 809 807 805 805 805 805 805 805 805 805 806 808 809 810 810 807 806 809 812 812 811 809 806 802 802 805 808 810 810 812 814 814 814 814 815 815 816 817 817 818 819 819 820 821 822 822 823 823 823 824 824 823 823 822
814 813 813 813 813 813 813 813 813 813 814 814 814 814 814 813 812 812 812 812 812 813 814 817 818 816 815 815 814 810 808 808 810 811 810 808 806 807 807 806 805 806 807 808 809 810 809 808 806 807 811 814 813 810 806 802 800 802 805 808 810 811 812 812 812 813 815 816 816 816 817 817 818 818 819 820 821 821 822 822 822 822 823 822 821 821 821
813 812 812 812 813 813 813 813 813 813 814 814 813 814 813 812 812 812 811 812 812 812 815 819 819 817 816 817 815 811 809 809 811 812 811 809 808 808 809 806 806 810 811 809 809 810 810 808 807 810 814 814 808 803 802 800 799 801 804 806 808 809 808 808 810 811 814 816 816 816 817 817 817 818 819 819 820 821 821 821 822 821 821 821 820 819 819
813 812 812 812 813 813 813 814 814 814 814 813 813 813 812 811 812 811 812 813 812 812 815 817 817 817 818 817 815 812 810 811 813 812 810 810 810 811 811 809 810 813 813 809 807 809 810 809 808 810 811 808 802 799 800 800 799 800 802 803 806 807 807 808 810 811 813 815 815 816 817 817 817 818 818 819 820 821 820 820 820 819 819 819 818 817 817
813 813 812 812 813 814 814 814 814 814 813 813 812 812 812 812 812 812 813 814 813 814 817 816 815 816 819 817 814 811 810 813 816 814 812 813 813 811 812 812 812 813 814 812 811 811 810 811 813 813 808 803 801 800 800 801 801 801 801 801 803 805 807 808 809 810 812 813 814 814 816 816 816 817 818 818 818 819 819 818 818 818 817 817 816 816 815
813 813 813 813 814 815 815 815 814 813 813 812 812 812 813 813 813 813 816 817 815 816 818 817 815 816 817 814 812 812 811 812 815 815 814 815 814 812 814 815 812 814 817 816 813 810 809 811 817 816 807 800 799 798 799 800 801 801 801 801 801 804 806 808 808 809 810 811 812 812 813 814 814 815 816 817 817 818 817 817 816 816 816 815 815 814 814
814 814 815 815 815 815 814 814 813 812 812 813 813 813 813 814 814 815 817 817 815 816 818 816 814 815 816 813 812 812 812 811 813 814 814 815 814 814 816 816 813 817 822 820 814 811 810 812 817 816 807 799 797 798 799 800 800 799 800 801 802 803 805 806 807 808 809 810 811 811 811 812 812 813 814 816 816 816 816 815 815 815 814 814 813 813 813
817 817 817 817 816 814 813 813 812 812 813 813 814 815 815 815 816 817 817 817 816 815 815 815 813 814 815 814 813 812 812 813 815 815 814 814 815 815 816 816 817 820 823 820 814 812 811 812 815 813 805 799 798 799 800 800 800 800 801 802 802 803 804 805 806 808 809 809 810 810 810 811 812 812 813 814 814 815 815 814 814 813 813 812 812 812 811
818 818 817 817 816 814 813 813 812 813 814 814 815 818 820 818 818 818 817 816 816 815 813 813 813 812 812 813 813 812 812 813 814 815 815 815 815 816 816 819 820 820 818 816 814 813 813 815 815 810 802 798 799 800 800 800 800 800 801 802 802 803 804 805 806 807 808 808 809 809 809 810 811 812 812 813 813 813 813 813 813 812 812 811 811 811 811
817 817 816 816 816 814 814 814 813 815 817 817 817 820 822 820 820 820 818 816 816 815 812 812 812 812 813 813 812 813 813 813 813 814 815 815 816 816 818 821 822 819 816 816 815 814 815 816 813 806 799 798 800 801 801 800 800 800 800 801 802 803 803 805 805 806 806 807 808 808 809 810 810 810 811 812 812 812 812 812 812 811 811 811 811 810 810
817 816 816 816 816 814 814 815 814 816 820 822 822 823 824 823 823 823 821 816 815 814 813 813 813 813 814 814 814 814 815 814 814 815 815 816 817 819 820 820 818 817 816 816 815 817 820 817 809 803 801 801 801 800 800 800 800 799 799 800 801 802 804 804 805 805 805 806 807 807 808 809 809 810 810 811 811 811 811 811 811 810 810 810 810 810 810
817 817 816 816 816 815 816 817 817 818 821 823 823 823 824 824 824 823 821 817 815 815 814 814 814 813 813 815 816 816 816 816 816 816 816 816 819 821 821 818 816 817 819 820 819 820 819 812 803 801 802 801 799 799 800 800 800 800 800 800 800 801 802 803 804 804 804 805 806 806 807 807 808 809 809 809 810 810 810 810 810 809 809 809 809 809 809
818 819 818 817 817 818 819 819 820 821 822 822 822 822 822 822 822 821 819 817 816 815 813 813 812 812 813 815 815 815 816 816 815 815 816 818 819 818 818 817 816 818 822 824 822 817 811 804 800 800 801 799 798 799 799 799 799 800 800 799 799 799 800 801 802 802 803 804 804 805 806 806 807 808 808 808 809 809 809 809 808 808 809 809 809 809 809
819 821 820 819 819 820 820 820 821 822 821 821 821 821 822 822 821 820 818 817 817 815 814 814 814 813 814 815 815 815 816 816 815 814 816 818 818 816 816 817 818 819 821 821 818 813 807 802 800 800 799 798 798 799 798 798 797 797 797 798 799 799 800 800 801 801 802 802 803 804 805 805 806 807 807 807 808 808 808 808 807 807 808 808 808 808 808
821 822 821 819 820 821 820 820 821 822 821 821 822 823 823 823 822 819 818 817 816 815 814 814 814 813 814 816 817 816 817 817 817 816 815 816 818 818 819 820 821 821 819 816 810 805 802 799 798 798 798 798 797 797 798 797 796 795 795 796 797 797 798 798 799 799 800 800 802 802 803 804 805 805 806 806 806 806 807 807 806 807 807 808 808 808 808
822 822 822 822 823 822 822 823 822 820 820 822 824 823 823 822 820 818 817 816 816 815 814 814 814 815 816 817 818 818 818 818 818 817 817 818 820 821 822 823 821 818 814 810 806 801 799 798 797 797 797 796 796 796 796 795 795 794 794 794 794 794 795 796 796 796 798 799 800 800 801 802 803 804 804 805 805 805 805 806 806 806 806 807 807 807 807
822 822 823 822 821 820 821 823 822 820 819 821 821 820 821 821 819 817 816 815 814 814 815 815 815 815 816 818 820 821 819 817 816 817 818 818 819 819 821 820 816 810 805 803 801 799 797 796 797 796 795 795 795 794 793 793 793 793 792 791 791 792 792 793 794 795 796 796 797 798 799 800 801 802 803 803 803 804 804 805 804 805 805 806 806 807 806
823 823 822 821 819 818 819 819 819 819 820 820 819 819 819 819 817 816 815 815 815 816 816 816 816 817 819 821 822 821 818 815 816 818 818 816 815 816 816 813 807 802 799 798 798 797 797 797 797 796 795 794 793 792 792 791 791 790 789 789 789 790 790 791 792 793 793 794 795 796 797 798 798 799 800 801 802 803 803 803 803 804 804 805 805 806 806
823 822 821 820 819 819 819 820 820 820 819 819 819 819 818 817 815 815 814 815 816 816 816 816 817 819 819 819 818 817 816 816 818 819 817 813 810 809 807 802 799 797 796 795 795 795 796 795 795 794 793 792 792 791 790 790 789 788 787 787 787 787 788 789 789 790 791 792 793 794 795 795 796 798 799 800 801 801 801 801 802 802 803 803 804 805 805
Wind_Speed
31 30 32 36 40 40 42 45 42 41 36 28 22 12 3 3 1 8 20 4 9 3 4 2 4 1 3 3 2 2 1 1 2 1 2 1 1 1 1 3 2 2 2 1 1 1 0 0 0 2 1 3 2 3 7 5 2 4 2 1 1 2 3 4 2 2 3 4 4 5 3 6 6 3 3 3 2 2 4 5 4 4 2 2 4 1 4
31 30 32 36 39 40 42 44 42 38 33 24 15 5 1 2 3 5 19 15 5 3 3 2 3 2 4 4 3 4 2 2 3 0 2 3 1 1 1 1 1 1 1 3 1 1 1 1 2 0 1 2 2 6 9 6 2 1 1 3 2 0 1 4 4 2 3 4 4 5 5 3 4 1 2 2 3 4 4 2 3 3 3 4 5 2 5
31 30 32 36 39 40 41 44 41 36 30 21 10 2 1 2 0 3 12 19 12 3 1 1 2 2 4 4 5 7 3 3 4 2 3 3 2 1 2 2 2 2 3 3 3 4 2 2 3 3 3 3 3 6 10 9 5 4 3 2 3 3 1 3 5 4 4 3 2 2 1 1 2 1 3 3 4 4 3 2 4 3 3 3 4 4 4
31 31 32 35 38 39 41 43 42 35 28 18 7 3 1 2 3 3 5 10 8 1 0 2 1 1 3 3 5 6 3 4 5 4 4 3 3 3 2 3 3 4 5 4 4 6 4 2 4 4 4 3 3 6 5 8 8 8 6 6 4 4 2 3 6 5 4 6 5 4 3 3 2 3 3 3 2 3 4 4 2 4 4 3 1 4 2
31 31 31 34 37 38 40 42 41 35 26 14 5 4 4 2 2 2 3 3 3 3 5 7 6 5 3 2 4 6 5 4 5 4 3 3 3 3 4 6 5 3 3 3 3 6 5 5 5 3 4 3 3 7 4 6 10 10 6 5 3 5 3 2 6 5 2 2 3 1 4 4 2 3 3 3 4 5 6 4 2 5 6 1 3 3 5
31 30 30 33 36 38 38 40 41 35 26 15 6 3 4 3 1 1 0 1 2 3 5 7 9 11 7 2 3 7 8 7 5 4 2 3 4 3 4 9 8 4 2 3 3 6 5 5 5 3 4 4 4 6 4 5 9 7 4 5 3 6 2 1 4 6 6 5 6 5 6 5 5 5 4 4 6 6 5 3 0 3 5 4 4 7 6
30 30 29 32 35 37 36 37 40 35 25 21 17 6 2 3 1 2 1 3 2 1 1 3 7 11 9 4 5 8 9 9 7 5 3 5 7 5 4 7 9 8 5 4 4 4 3 4 4 3 3 4 3 4 4 4 7 6 3 3 2 5 2 1 5 6 7 8 8 7 6 6 6 7 6 5 8 8 6 3 2 5 5 5 10 12 6
30 29 29 30 33 36 35 35 39 36 28 24 19 8 3 2 1 3 3 4 3 2 1 1 4 7 7 5 6 8 8 8 6 7 6 4 6 6 4 5 6 7 8 8 5 2 1 1 2 1 2 4 3 3 1 3 6 6 3 2 1 3 2 1 5 5 4 5 5 6 7 7 6 7 7 6 9 9 6 3 4 7 7 5 10 12 6
29 29 28 29 31 34 34 34 36 37 31 22 11 5 6 2 2 1 3 3 5 4 2 3 3 3 5 4 5 7 8 7 4 5 7 6 4 5 5 5 4 4 9 9 5 2 2 4 6 4 2 2 1 1 1 1 4 6 3 2 3 3 4 2 4 5 2 1 3 6 9 9 6 4 5 6 5 5 4 3 2 3 6 7 7 7 4
29 28 27 28 30 32 33 33 33 34 32 22 7 4 9 5 1 2 4 3 5 4 3 4 3 2 3 3 3 4 6 8 4 3 5 7 6 5 5 3 2 5 9 8 6 7 6 7 8 5 5 4 4 3 3 2 1 3 2 2 2 2 5 4 3 4 4 3 4 5 8 7 2 1 0 2 3 5 5 4 5 3 4 7 5 4 5
28 28 26 26 28 30 31 31 31 30 31 24 10 5 10 5 0 3 4 4 4 4 3 4 4 3 4 4 3 3 5 9 7 3 2 5 7 7 6 5 4 3 5 5 6 8 9 8 5 3 4 4 5 4 5 3 1 2 1 1 1 2 5 4 2 4 5 4 1 3 4 3 2 4 3 3 4 7 7 4 3 4 2 3 4 5 6
26 27 26 25 27 29 29 29 29 27 27 24 15 11 12 6 1 2 5 5 3 5 3 4 2 2 4 4 3 4 5 6 6 3 2 3 6 6 7 8 4 2 4 8 9 7 5 3 2 1 1 3 2 1 4 6 5 3 2 2 2 3 4 3 2 4 5 2 3 4 2 4 3 5 2 4 5 8 11 7 4 5 5 5 7 8 7
25 26 26 25 25 27 28 28 27 25 24 23 21 19 16 8 3 3 4 5 3 4 2 2 3 3 4 4 4 4 4 4 5 3 2 2 5 6 6 5 3 5 8 9 9 5 2 2 3 3 4 5 5 6 8 8 8 8 6 4 3 4 3 3 3 3 3 3 3 4 4 4 3 4 3 4 4 5 8 7 4 4 4 4 6 6 4
24 25 25 24 24 26 27 27 26 24 22 22 22 23 21 13 5 2 3 5 2 2 0 2 5 7 6 6 5 4 4 6 5 4 3 2 3 4 3 3 6 9 7 5 5 4 3 2 3 3 4 4 4 4 3 4 6 8 9 7 3 4 3 3 3 2 4 4 2 0 2 3 1 1 1 1 1 0 3 4 0 2 2 1 5 5 3
23 24 24 24 23 24 25 26 26 24 21 20 22 24 24 18 9 3 2 4 4 2 4 3 4 6 5 5 5 4 4 5 5 4 4 3 2 3 3 5 11 11 4 2 3 3 2 1 2 2 2 1 1 2 2 2 3 5 6 6 5 4 2 3 3 1 3 5 3 2 3 2 4 4 3 1 0 2 4 5 1 2 2 1 4 5 2
22 23 24 23 22 23 24 25 26 25 21 19 20 23 23 18 12 7 3 4 4 2 3 3 3 1 2 3 3 4 3 3 3 3 5 5 5 5 5 7 11 9 4 4 3 3 3 1 1 2 1 1 1 1 1 2 3 4 5 7 8 7 3 3 4 2 2 5 4 2 2 3 4 5 4 4 1 3 4 5 1 3 0 2 4 4 2
22 23 23 22 21 22 23 23 25 25 22 19 18 21 23 18 12 9 5 4 5 2 3 3 1 2 2 3 3 3 2 2 2 2 2 4 4 6 7 8 9 7 6 5 2 3 4 2 2 2 0 1 1 0 1 2 2 5 7 7 8 6 4 4 4 2 2 4 3 2 3 2 2 3 5 5 1 5 6 2 4 3 2 2 3 4 3
21 22 22 22 21 21 21 22 23 25 23 19 15 17 21 18 12 9 5 3 5 2 4 3 3 3 2 1 1 2 1 2 2 1 2 3 2 4 6 5 6 6 5 4 3 3 4 2 2 2 0 2 1 1 1 2 2 3 4 3 4 4 3 2 3 2 2 3 2 0 2 3 2 4 6 3 3 4 3 4 6 2 2 2 4 4 3
20 21 22 21 20 20 20 20 21 23 23 20 14 14 18 18 13 11 8 4 4 3 5 5 4 3 0 1 1 2 2 2 1 2 2 3 3 3 3 2 3 4 3 3 3 2 3 2 2 1 1 3 2 2 2 2 1 1 2 2 2 2 2 2 2 2 2 3 3 1 2 3 1 3 6 2 3 3 4 5 4 3 3 3 3 4 4
20 20 21 20 19 19 18 19 20 21 22 22 15 11 14 15 12 11 9 4 3 3 4 5 4 3 1 3 3 2 3 3 2 3 2 2 3 3 4 3 3 4 4 4 3 2 2 1 2 1 1 1 1 2 2 2 2 2 1 1 1 1 2 2 1 1 2 3 3 2 2 2 3 2 3 2 2 4 4 2 2 2 2 1 1 2 3
19 19 20 19 18 17 17 17 18 19 21 22 17 12 13 14 10 9 8 5 5 3 3 4 5 4 2 2 3 4 4 3 2 2 1 3 3 4 3 2 2 2 2 2 2 1 1 0 1 1 1 1 1 2 2 1 3 3 1 2 1 1 2 1 1 0 2 2 1 2 3 4 4 1 2 2 2 4 4 3 2 1 1 1 1 3 2
18 18 19 18 16 16 16 16 17 17 18 20 19 16 14 13 10 8 9 8 6 4 2 2 3 4 4 3 4 4 4 3 3 2 2 1 2 3 3 1 1 0 1 1 2 2 1 1 1 1 1 1 1 2 2 3 1 3 3 2 1 1 1 2 1 1 2 2 2 3 1 3 4 4 4 3 4 3 3 4 2 0 1 1 1 2 2
18 18 18 17 15 15 15 14 15 16 16 17 19 18 16 14 11 7 7 8 7 5 5 5 4 4 5 5 6 6 6 7 8 6 4 4 2 2 2 1 1 1 0 1 2 1 0 0 0 1 1 1 1 2 3 2 1 1 2 2 0 1 2 3 3 2 3 4 3 2 1 1 2 4 3 3 3 2 2 4 2 2 1 1 2 1 1
17 18 18 16 14 14 14 13 13 14 14 15 16 16 16 16 13 8 5 5 4 3 5 7 4 2 5 7 7 6 6 7 9 7 6 7 4 1 2 1 0 2 3 1 2 2 1 0 1 2 1 0 1 2 2 2 1 1 1 1 2 1 1 3 4 3 2 2 1 1 1 1 1 2 2 2 2 2 3 3 3 3 2 2 2 2 1
17 17 17 15 13 13 13 11 11 12 13 12 12 14 16 18 16 10 6 4 3 3 2 3 2 3 6 6 6 6 5 6 7 6 6 8 7 4 1 1 0 1 2 1 1 3 3 1 2 2 2 1 1 1 1 1 1 1 2 0 2 1 2 3 3 2 1 2 3 1 1 2 2 0 2 2 1 2 2 2 2 3 3 2 2 2 2
17 17 16 14 12 12 11 10 9 10 11 9 10 14 17 17 17 13 8 5 2 4 3 1 4 5 10 8 7 8 6 5 5 6 5 7 7 4 2 1 1 1 2 2 3 3 3 2 2 2 1 1 2 1 1 0 0 2 2 1 3 0 2 2 2 3 3 1 1 1 4 4 5 3 2 3 2 2 1 2 2 2 2 3 3 3 3
16 16 15 12 11 11 10 9 8 9 8 6 7 11 14 15 16 15 12 7 2 1 2 1 4 7 9 6 7 11 8 4 4 5 4 4 5 5 5 4 3 3 4 4 2 2 3 3 2 1 1 1 2 2 0 1 2 2 1 2 2 1 2 2 3 4 1 2 4 4 3 1 5 5 4 4 3 3 2 1 0 1 2 3 4 3 2
16 15 14 11 10 9 9 8 7 8 7 4 5 7 11 14 16 15 13 10 4 3 2 2 4 6 5 3 7 10 7 5 6 4 2 3 4 5 5 5 4 2 3 3 2 2 3 2 1 0 1 0 2 1 1 2 3 2 1 2 1 2 3 3 4 4 4 5 6 6 4 1 4 5 4 4 3 4 4 3 3 3 2 3 4 3 1
15 15 13 10 9 8 7 7 6 7 7 3 6 3 5 9 13 14 13 11 6 3 3 1 2 2 2 4 7 8 6 6 7 4 3 4 4 4 5 5 3 2 2 3 3 1 0 1 1 1 1 1 1 1 1 2 2 1 3 3 2 1 3 4 5 4 1 3 5 5 4 2 3 4 4 3 3 5 3 4 3 3 2 2 4 4 3
14 14 12 10 8 6 6 5 5 7 7 3 5 1 3 4 9 14 13 10 6 2 3 3 1 1 3 4 5 7 9 9 8 6 4 4 4 4 4 3 3 3 2 2 2 1 1 1 1 2 2 0 3 2 1 2 1 3 5 5 4 2 2 3 3 2 1 2 5 5 4 3 3 2 1 1 2 5 3 3 3 3 4 5 5 5 5
14 13 12 10 7 5 5 4 3 5 7 4 3 2 2 1 5 12 13 11 6 2 4 2 0 2 4 2 1 6 10 9 7 6 5 4 4 4 4 2 1 1 2 1 1 1 1 1 1 2 2 2 4 3 2 2 1 3 5 5 4 2 2 2 1 1 2 4 5 4 3 2 2 2 1 1 3 4 3 3 4 5 6 8 8 6 6
14 13 11 9 6 4 3 2 2 3 6 5 4 3 2 1 5 10 11 9 5 2 3 3 2 1 2 3 3 6 8 5 5 6 4 3 4 4 4 3 2 1 2 3 1 0 1 2 1 1 1 2 4 3 2 3 2 4 6 5 5 3 2 2 1 1 3 4 5 4 2 2 1 2 3 4 6 6 6 6 6 5 6 8 8 8 8
15 12 10 8 5 3 1 1 1 2 3 4 5 5 3 3 6 8 9 7 3 2 3 3 1 0 2 2 3 5 6 3 3 4 4 3 3 3 3 3 2 2 2 2 1 1 1 2 1 1 2 2 3 3 1 2 5 6 5 5 5 3 2 2 1 1 1 2 3 3 2 4 4 3 4 5 5 7 8 8 6 6 6 6 6 7 8
13 11 9 6 3 1 1 1 1 0 1 3 5 4 6 8 7 7 6 3 2 3 3 3 2 1 3 2 1 3 4 3 2 2 2 3 3 2 1 3 2 2 2 2 1 1 1 0 1 1 1 2 2 2 1 4 6 5 3 2 2 3 3 1 2 2 3 2 1 2 4 3 3 3 3 4 4 6 7 7 5 4 3 2 4 7 7
11 10 7 4 1 0 1 1 2 1 0 2 2 4 10 11 8 5 3 1 2 2 1 2 2 0 2 3 2 4 3 2 0 1 1 2 3 2 1 1 3 2 1 1 1 1 1 1 2 1 1 1 1 1 3 5 6 4 2 3 3 4 4 1 3 4 3 0 1 0 2 4 4 4 3 4 4 5 5 5 4 3 3 3 5 7 7
9 8 4 1 1 0 1 1 2 1 1 1 5 10 11 9 4 1 2 2 2 2 1 1 2 1 2 1 2 3 3 2 1 2 1 1 3 2 2 2 2 2 1 2 2 1 2 1 1 0 1 1 2 4 5 5 5 5 5 6 6 5 5 4 5 4 3 3 3 2 3 4 4 4 4 4 4 3 2 3 2 2 3 5 5 5 6
7 5 1 3 2 1 2 1 1 2 4 7 10 10 7 3 2 2 2 2 3 2 3 3 1 2 2 2 2 2 2 2 2 3 2 1 2 2 2 3 1 2 2 3 1 1 1 1 2 1 2 3 4 6 6 5 5 6 5 5 6 6 4 3 4 6 4 3 3 2 2 2 3 3 3 4 3 2 2 3 4 4 5 6 6 6 7
6 4 2 2 2 1 1 1 2 5 8 10 9 5 2 1 2 2 1 2 2 3 3 2 1 2 1 1 2 1 1 1 2 2 1 1 1 2 2 2 0 0 2 3 3 2 1 3 3 1 3 4 4 5 6 5 5 5 5 6 7 6 5 4 5 6 4 0 2 1 2 2 3 3 4 4 4 4 4 6 8 8 7 8 9 9 10
4 3 3 3 2 1 1 4 8 9 8 7 4 1 0 2 2 1 1 1 1 1 2 0 2 2 3 2 3 2 0 2 3 2 2 1 1 1 1 1 1 1 2 2 4 1 2 3 2 2 3 5 4 4 5 4 4 4 5 5 6 6 6 5 5 6 6 5 5 5 4 4 5 4 4 4 4 5 6 8 9 9 9 10 11 10 9
8 6 3 3 2 4 6 7 8 6 3 2 2 1 1 1 1 0 0 2 1 1 1 1 2 2 3 2 2 2 0 2 1 1 1 1 1 0 1 0 1 1 2 2 3 1 2 1 2 2 2 4 4 4 4 3 3 4 3 4 6 8 9 7 7 8 7 5 4 5 5 5 6 6 5 5 5 4 5 7 9 10 10 9 9 8 6
10 6 3 3 7 10 9 5 3 1 1 1 2 2 1 1 1 0 1 2 1 2 2 1 1 2 0 2 2 2 1 0 1 2 1 1 1 1 1 1 1 2 1 4 3 2 3 1 1 2 3 5 5 5 4 3 3 3 1 3 6 9 9 8 7 8 8 4 3 5 5 5 6 7 7 7 7 6 7 8 10 10 9 7 6 6 3
11 8 6 7 9 9 5 3 3 2 2 1 1 1 1 0 1 1 1 1 1 2 1 0 0 1 1 1 2 2 0 1 1 2 2 1 2 1 1 1 2 2 2 4 1 3 2 1 2 3 5 5 5 5 4 3 3 3 2 3 5 7 9 8 7 8 9 8 6 6 6 6 6 7 8 8 8 8 8 9 9 9 6 4 4 4 2
11 6 4 5 5 3 2 2 1 1 2 2 2 2 2 2 1 2 2 2 1 0 1 1 1 0 0 0 0 1 1 1 1 1 1 1 1 1 2 2 1 1 3 1 3 3 0 2 3 4 5 5 5 5 4 4 4 3 4 4 5 6 8 8 7 8 9 8 7 7 7 8 7 6 6 6 6 6 7 8 8 7 5 4 4 4 3
6 2 1 1 1 1 1 1 1 1 2 1 1 2 1 2 2 1 1 2 2 1 2 1 0 1 1 1 1 1 1 1 1 1 0 1 1 2 2 1 2 2 1 2 2 0 2 3 4 5 5 4 5 5 4 4 5 4 4 4 5 6 7 7 6 6 6 6 7 7 7 8 8 7 6 5 4 5 7 8 7 7 6 5 5 5 4
3 1 2 3 2 1 1 1 1 1 1 0 1 2 2 1 2 2 2 2 2 2 2 1 2 3 1 1 1 1 0 0 1 0 1 1 2 1 1 2 2 0 2 2 1 1 2 3 4 4 4 5 5 5 4 4 4 2 2 3 4 6 7 7 7 6 7 8 8 8 8 9 9 8 8 7 5 5 7 8 8 7 8 6 5 5 5
1 0 2 2 1 1 1 1 1 1 1 1 2 3 3 3 4 4 3 2 2 3 3 1 2 2 1 1 0 0 0 1 0 1 1 2 1 2 2 1 0 2 2 2 2 2 3 5 4 4 4 6 6 5 4 3 3 2 2 4 4 5 7 8 8 8 9 9 9 9 10 11 10 9 9 8 7 7 8 9 7 7 8 7 6 5 4
1 1 3 2 1 1 1 1 2 2 2 2 3 3 3 3 3 3 2 2 2 3 3 1 1 0 1 1 0 1 1 1 0 1 0 2 0 2 1 1 0 1 1 1 3 4 4 4 4 4 5 5 5 5 5 4 3 4 5 5 5 5 7 8 9 9 10 10 9 10 11 11 11 11 10 9 9 9 10 9 6 7 8 7 6 5 4
0 1 2 2 1 1 1 1 2 1 1 1 2 2 1 1 2 3 4 2 2 2 2 0 1 1 2 1 0 1 1 0 0 1 0 1 0 1 2 2 2 2 2 3 5 5 4 4 5 5 5 4 4 4 4 5 5 5 5 5 6 7 7 8 9 11 12 12 10 11 12 13 13 13 11 10 11 11 11 9 6 8 8 7 6 5 4
2 1 1 1 1 2 3 2 1 2 3 2 1 1 1 1 3 4 4 2 2 2 1 2 2 1 2 1 1 1 0 1 1 0 1 1 0 1 1 0 2 3 3 4 4 4 4 5 4 4 4 4 4 4 4 5 5 6 6 7 9 9 10 11 12 13 14 14 13 13 14 14 14 13 12 11 12 12 10 7 7 10 9 7 7 6 5
2 1 0 1 0 1 1 1 2 2 3 3 2 1 2 2 3 4 3 1 1 2 2 0 1 1 0 1 1 1 2 2 1 1 1 1 2 1 1 2 3 4 4 4 4 4 5 4 3 4 5 5 5 5 5 5 5 6 8 11 12 12 12 14 14 14 14 15 16 16 15 14 14 14 14 13 13 11 8 6 8 11 11 9 8 7 6
1 1 1 2 2 2 1 1 1 3 3 3 3 3 2 2 3 4 2 1 3 3 2 1 0 1 1 0 0 1 1 1 1 1 1 2 2 3 2 3 5 5 4 4 4 4 4 4 3 4 5 5 5 6 6 6 7 9 10 12 13 13 13 14 14 14 15 17 17 16 15 15 16 17 17 16 13 9 6 6 8 11 12 11 9 8 6
0 0 2 2 2 2 2 1 1 3 4 3 4 3 2 3 4 4 1 2 2 0 1 2 1 2 1 1 2 1 0 0 0 1 2 2 2 3 4 5 5 5 4 5 5 4 4 4 5 5 6 6 6 7 8 7 8 10 11 12 13 13 13 14 15 16 15 15 15 16 17 18 18 17 15 13 10 8 8 8 9 12 14 14 11 9 7
Wind_Direction
358 356 360 4 4 3 3 4 5 4 359 352 353 356 10 50 154 349 7 30 188 50 51 259 354 88 235 283 257 264 231 237 271 276 21 331 247 1 261 219 225 215 223 218 164 77 119 173 237 208 129 114 179 344 7 3 24 96 109 219 154 100 94 86 42 327 313 299 312 327 352 74 77 47 56 87 66 88 135 171 168 123 145 157 82 92 245
358 356 360 5 5 4 5 5 5 7 4 355 352 6 95 32 225 334 21 45 97 58 57 315 334 308 315 349 346 326 348 16 336 46 37 360 1 2 297 312 7 313 38 76 69 358 124 75 14 39 89 37 350 17 25 15 359 72 146 191 168 109 89 104 93 38 351 331 336 336 338 44 83 39 4 57 80 86 110 122 79 102 183 155 121 189 246
358 357 2 7 6 5 6 6 5 8 6 358 358 55 181 17 314 287 19 41 48 50 143 272 283 307 350 18 3 344 347 357 356 69 69 11 29 58 294 322 1 8 42 57 28 22 75 103 31 27 2 342 351 21 39 46 27 359 10 59 111 116 109 112 124 146 167 184 239 252 233 65 94 89 21 50 85 97 137 120 77 122 182 116 126 190 239
359 359 3 8 9 8 8 8 7 8 8 3 7 45 88 55 43 318 341 30 40 24 331 23 31 28 26 33 10 355 327 319 352 62 65 17 33 46 346 340 19 36 39 49 27 13 22 65 68 34 343 320 322 336 21 61 27 357 16 35 69 106 72 74 117 140 178 191 219 220 154 109 122 137 74 52 51 73 105 93 99 168 143 61 156 172 120
360 0 4 9 11 11 11 10 9 10 11 10 12 39 49 79 59 2 330 359 9 357 14 24 21 11 27 56 1 351 350 343 349 22 38 19 35 56 28 21 32 15 9 64 46 357 2 36 48 12 324 292 298 317 340 54 22 3 10 9 49 96 56 46 97 69 14 220 253 323 96 90 87 118 93 54 24 43 86 96 152 148 118 65 251 134 96
1 2 6 10 13 14 13 12 12 13 16 27 52 56 30 56 107 278 19 29 349 355 6 9 15 16 19 46 13 4 19 28 8 343 349 17 28 55 34 23 25 0 332 110 57 357 8 31 10 337 340 332 330 342 354 34 29 30 14 344 61 106 71 8 93 53 28 20 0 21 75 72 35 32 46 60 48 52 88 104 329 121 130 184 171 101 92
2 3 8 12 15 17 16 14 14 14 21 42 59 59 348 47 65 300 16 76 49 43 355 341 18 21 9 9 20 15 22 28 16 351 346 4 15 46 55 10 8 14 27 93 75 10 33 40 352 335 353 338 351 16 356 349 18 44 42 340 79 105 52 61 95 60 31 21 10 26 66 73 44 19 11 62 78 73 78 75 51 75 90 128 120 101 88
3 5 9 13 18 20 18 17 16 15 21 41 55 53 4 48 46 320 17 57 24 30 45 17 48 26 5 8 7 5 16 19 14 21 31 20 358 15 41 356 345 20 41 66 84 64 106 106 301 301 5 345 8 38 332 311 350 11 29 341 24 95 128 149 96 71 28 16 30 51 73 85 71 30 6 32 73 73 65 67 82 80 75 89 104 100 89
5 6 9 14 20 23 21 19 19 17 22 37 55 44 15 9 225 354 70 46 0 357 353 26 74 37 3 5 352 355 3 355 3 41 42 49 26 357 353 333 322 26 41 48 56 355 273 227 244 234 208 279 315 347 286 312 345 348 3 345 349 76 126 135 86 100 162 186 123 115 100 89 78 48 7 10 51 78 71 49 57 102 131 127 104 103 123
6 7 9 14 21 24 23 23 22 20 25 37 52 15 7 2 295 43 90 77 2 353 351 11 54 58 350 333 336 347 343 344 16 64 17 24 34 2 340 346 19 39 25 18 357 322 288 252 253 238 214 241 251 251 271 271 278 307 347 23 8 82 137 148 113 123 169 197 172 134 102 93 83 292 13 65 98 114 95 42 12 26 139 148 142 157 169
7 7 9 14 21 25 25 25 24 23 27 34 43 16 4 6 339 15 68 81 0 345 26 22 27 32 343 323 329 347 351 359 17 47 2 358 1 354 4 29 60 65 18 345 315 297 272 258 264 227 202 243 257 262 291 304 263 260 309 45 37 67 119 145 129 122 162 201 209 66 87 138 235 281 251 177 146 126 112 86 11 16 61 131 129 129 130
8 8 10 15 21 25 25 24 25 26 28 31 36 29 13 8 135 52 75 94 354 344 42 35 7 353 327 327 352 357 358 358 345 347 32 354 341 352 17 30 40 34 341 326 318 310 284 278 325 353 282 288 283 23 33 23 10 353 8 102 106 68 84 122 95 105 146 160 68 85 191 233 286 318 313 129 122 116 109 94 42 32 56 89 100 108 123
7 8 10 13 20 25 25 23 23 24 27 29 32 32 25 25 82 84 91 100 22 343 30 13 341 342 336 352 10 344 333 335 321 333 43 24 353 356 9 24 358 302 311 318 325 350 29 359 359 354 333 344 14 45 54 42 21 12 14 31 103 112 114 119 83 94 136 115 99 154 225 276 356 12 37 96 101 94 91 78 29 10 32 81 104 107 120
7 7 9 10 17 25 25 23 22 21 24 30 31 32 31 33 54 99 112 99 67 319 35 19 342 344 352 2 4 340 334 350 347 349 12 8 352 338 321 334 317 301 298 312 341 26 63 23 15 9 343 359 14 7 21 39 38 34 19 4 54 114 122 113 81 93 133 124 125 141 353 354 63 95 357 84 69 33 114 112 81 328 359 97 122 111 104
6 7 8 9 17 25 26 24 22 20 22 28 32 35 32 29 35 69 128 117 111 44 31 20 314 320 335 348 4 11 3 356 352 341 332 328 332 308 278 311 318 311 311 34 30 38 51 53 57 28 333 9 26 302 321 348 10 41 39 21 33 61 95 152 146 139 105 102 91 44 25 299 222 210 246 318 336 205 152 116 109 296 335 63 128 122 113
6 5 7 10 18 25 27 25 23 21 21 25 32 36 33 27 30 44 68 104 109 72 341 299 246 256 318 324 3 42 34 346 338 342 340 341 338 317 304 316 324 331 20 53 53 53 46 47 124 145 210 213 193 263 340 357 324 341 19 33 38 39 37 96 114 116 107 111 125 160 187 231 224 215 261 301 261 179 110 81 244 241 40 69 120 128 143
6 6 6 10 18 25 28 26 23 22 22 23 30 34 31 28 30 40 58 79 87 95 278 278 132 83 34 358 351 19 47 349 3 47 347 324 319 316 322 331 336 358 42 53 31 46 59 59 64 79 168 268 93 72 348 42 9 332 343 11 26 27 18 45 89 120 117 116 135 189 201 232 236 237 272 290 175 120 93 99 244 233 98 98 131 144 173
6 7 6 9 16 24 28 27 23 22 21 23 31 33 31 30 36 49 67 88 83 68 299 321 60 62 37 62 356 340 38 11 11 47 323 311 322 326 325 333 344 357 30 59 46 45 61 46 36 84 46 320 39 89 359 38 51 332 332 5 19 18 19 52 113 108 76 102 116 329 260 248 246 267 283 292 117 114 133 206 226 199 106 134 148 161 187
5 6 6 8 14 23 28 28 25 22 21 23 31 36 32 31 42 59 65 81 95 64 319 336 51 66 345 102 63 353 29 44 41 64 25 341 328 324 316 319 352 354 13 58 59 57 66 25 342 92 69 337 350 75 42 33 30 335 1 28 19 21 19 26 73 71 54 107 112 64 274 260 290 296 294 315 122 166 210 214 207 170 151 158 157 176 191
3 5 5 6 12 21 28 28 26 24 22 24 31 41 37 34 44 59 63 82 106 65 342 344 37 47 21 62 75 65 46 37 39 74 75 290 299 9 24 346 338 358 14 39 42 36 66 35 309 12 72 317 329 79 83 33 10 8 70 63 19 85 73 28 51 92 71 71 72 89 215 274 332 320 308 8 119 183 190 152 140 157 157 162 193 212 198
1 2 4 5 11 21 28 29 27 25 23 24 30 40 42 40 48 57 59 78 103 80 10 4 28 35 33 60 93 105 90 70 46 53 59 272 303 59 94 234 277 359 18 47 54 356 7 329 301 5 63 296 340 83 115 73 12 350 55 99 50 36 107 157 223 157 103 113 127 152 200 276 314 57 115 69 99 153 149 118 103 122 137 165 247 276 269
358 358 0 4 11 21 27 28 28 26 22 22 28 36 36 36 48 63 61 69 90 95 61 42 36 31 36 38 31 32 40 37 13 15 49 5 352 65 118 181 312 4 182 94 61 359 345 19 10 47 48 336 9 59 87 105 92 320 355 63 43 340 100 129 130 59 89 126 150 142 171 298 342 58 90 85 78 88 109 112 110 167 209 170 195 307 328
356 355 357 2 12 22 25 26 27 27 23 21 26 31 31 30 39 65 76 73 78 72 52 54 56 29 17 14 8 3 5 9 1 359 46 65 13 353 59 56 334 329 96 101 107 155 173 114 87 86 71 358 62 61 46 75 133 303 7 54 356 333 54 68 88 115 81 56 55 79 86 31 36 57 75 94 95 97 122 124 145 225 214 159 159 204 295
351 352 354 358 10 21 23 24 26 24 23 24 26 28 35 36 34 43 66 64 66 66 33 31 46 14 325 330 346 358 6 12 2 353 24 56 65 14 342 328 277 15 350 306 177 139 103 155 123 81 78 76 86 85 71 57 65 98 79 15 320 309 65 66 87 120 109 87 196 206 142 132 123 97 113 131 138 151 149 158 199 205 166 158 175 170 169
346 347 349 355 7 17 21 23 26 22 22 28 29 30 39 40 33 37 58 54 71 116 61 351 316 332 345 347 0 6 354 357 3 3 19 41 64 100 175 243 148 41 334 297 110 80 56 51 71 73 91 102 76 92 125 114 121 109 92 33 281 273 93 86 86 89 99 188 212 218 17 340 315 81 155 181 160 114 113 146 176 159 143 143 147 148 152
340 341 344 351 6 16 17 21 26 23 23 34 39 37 42 41 35 39 53 51 73 103 70 291 262 338 7 18 19 9 351 335 358 17 23 28 42 72 122 148 41 40 61 75 81 90 91 80 73 82 100 89 80 106 146 130 106 75 82 199 240 322 75 108 101 78 69 105 182 67 28 344 309 290 271 262 229 147 80 45 93 127 137 118 101 114 155
335 336 340 349 4 13 13 19 27 25 26 50 62 49 46 45 40 39 40 35 47 95 34 297 261 326 353 7 9 7 360 329 344 9 19 25 32 38 50 58 40 24 39 40 33 78 84 58 52 94 205 315 58 79 120 87 83 71 45 289 294 41 101 135 98 91 126 222 189 161 132 262 255 245 251 262 229 163 136 58 73 222 217 152 112 92 116
333 332 335 345 0 8 10 18 29 24 22 69 110 72 51 46 41 36 32 32 52 144 153 219 269 319 344 346 355 4 5 345 344 351 349 2 17 28 43 62 67 49 49 47 33 50 60 43 28 157 240 277 60 31 336 32 53 41 317 300 334 113 153 166 138 147 219 228 193 165 141 176 234 224 227 243 209 146 154 214 236 255 251 165 138 127 145
333 331 331 340 355 0 4 16 27 23 24 93 152 119 55 46 36 28 25 25 36 111 128 30 321 335 326 304 333 359 10 358 349 334 298 317 350 25 56 78 92 105 107 93 84 81 33 244 216 252 294 139 118 358 349 50 53 281 252 256 259 196 191 188 161 146 217 222 188 167 143 163 212 215 225 237 170 144 185 241 243 252 259 187 169 185 211
332 330 328 337 347 349 359 16 26 24 30 99 158 115 31 36 23 16 15 17 22 80 105 78 48 330 309 299 325 355 1 1 2 357 345 344 358 27 62 95 108 100 88 72 80 130 255 291 297 295 293 175 116 100 92 118 172 265 260 255 256 260 253 225 178 125 74 168 172 165 154 164 190 197 225 267 151 158 202 246 224 219 222 204 199 217 228
327 326 327 335 338 334 350 11 28 31 33 66 133 78 54 74 0 0 4 9 14 71 98 83 274 310 332 322 329 349 351 359 10 5 3 16 20 25 42 66 89 92 85 63 58 132 201 253 347 333 322 54 93 108 132 124 142 278 271 256 246 246 249 247 231 168 141 130 119 111 107 106 103 99 86 220 199 185 186 196 197 208 213 208 210 222 231
323 323 325 329 326 320 342 11 34 33 29 41 75 86 105 215 328 344 353 1 12 85 96 55 8 346 334 309 315 339 347 359 15 12 9 17 16 14 26 39 44 77 101 104 89 304 213 185 177 320 334 51 81 96 103 111 161 239 246 233 230 236 232 242 277 107 139 129 105 79 29 318 234 189 181 192 199 195 184 180 185 193 203 210 217 222 226
321 321 321 318 312 306 321 355 17 24 31 64 94 91 58 356 329 331 341 356 24 95 107 85 79 299 286 279 312 344 353 354 5 13 10 353 356 7 8 14 23 28 39 69 165 253 229 137 133 293 312 32 81 97 105 173 213 235 241 222 211 205 200 231 280 99 164 173 126 131 202 234 228 207 181 171 178 186 184 180 177 180 186 199 216 228 236
322 321 316 303 284 275 299 268 219 349 34 102 118 74 8 347 334 334 338 354 63 72 56 75 109 276 316 331 317 340 2 13 357 357 347 333 353 23 338 336 5 20 357 357 32 347 326 266 176 204 291 359 67 91 253 253 248 254 262 232 181 113 92 358 291 232 221 235 186 172 183 171 135 127 144 159 177 191 193 190 191 196 199 213 233 242 248
324 320 312 289 236 305 334 238 185 195 96 129 128 359 341 330 324 330 327 330 72 57 9 52 97 135 348 7 320 309 352 30 342 282 277 308 351 35 84 1 6 359 315 339 33 16 324 244 179 194 271 326 39 203 236 249 256 252 204 178 155 117 113 189 239 227 219 237 35 155 136 124 129 148 173 188 194 196 202 211 210 209 229 257 256 255 256
329 325 316 205 141 46 21 110 112 74 22 322 322 331 332 327 328 16 153 135 79 97 167 73 61 139 151 139 274 297 357 27 319 302 290 307 339 11 74 65 7 305 324 40 41 320 284 221 144 313 303 261 212 227 225 224 230 222 198 195 190 170 165 192 195 175 134 75 66 86 122 151 177 191 192 198 202 195 209 238 240 224 241 259 266 266 261
349 357 55 153 143 54 50 76 62 5 325 315 319 327 332 348 59 91 117 93 44 53 102 108 172 212 170 172 244 298 2 357 320 334 348 335 316 332 42 57 330 279 354 18 2 249 289 17 89 113 231 222 224 239 235 217 214 214 201 197 198 190 186 186 155 133 109 51 28 51 107 169 206 201 181 197 215 204 198 240 254 248 245 254 261 266 271
3 24 73 104 107 89 59 2 322 317 314 315 323 334 349 52 62 52 28 25 10 6 54 97 212 239 127 147 239 282 2 6 5 2 334 297 315 340 20 39 258 273 8 326 270 228 30 20 49 110 249 261 269 264 249 233 227 220 197 188 193 188 178 165 140 127 121 321 300 276 156 184 228 225 197 199 214 214 220 245 259 260 257 261 266 274 281
16 24 27 41 72 145 287 313 309 305 307 318 338 2 328 13 42 31 317 352 10 346 11 78 220 202 148 181 264 284 102 79 38 5 312 296 344 343 359 346 306 38 42 314 284 331 30 348 356 8 294 291 298 283 262 247 239 228 208 194 185 170 161 164 163 157 166 200 226 213 191 194 208 210 201 205 224 243 251 259 269 274 273 273 277 280 283
33 29 22 33 3 310 314 317 310 302 307 347 14 40 39 19 45 148 309 21 27 302 256 194 222 211 156 167 244 274 46 84 84 229 250 257 244 120 66 339 280 57 50 286 281 33 73 321 340 359 288 270 278 288 291 280 256 242 218 178 166 164 166 176 189 192 193 207 225 218 210 206 200 192 189 197 212 239 259 270 282 289 287 285 287 289 285
13 10 358 319 312 315 324 340 357 25 67 40 19 39 60 8 318 315 63 53 349 275 246 138 350 318 349 138 183 225 273 56 132 134 109 308 291 71 67 281 282 67 74 256 263 69 78 51 327 294 252 246 263 291 305 300 289 282 233 171 167 170 173 180 196 205 204 206 220 217 209 203 199 198 200 206 214 231 256 276 290 295 293 290 297 299 287
334 322 305 299 306 315 336 21 43 44 54 54 38 23 357 298 339 359 17 81 229 278 289 119 151 268 250 171 173 181 155 30 72 91 74 296 271 116 101 315 13 61 228 247 278 57 57 350 297 273 258 258 276 296 296 279 276 283 248 205 184 177 181 188 203 212 210 211 218 213 195 189 201 211 215 222 232 247 265 280 289 290 286 282 290 297 281
326 320 304 295 304 329 8 16 13 43 56 53 50 25 350 346 9 1 324 289 258 308 299 257 214 187 315 315 106 106 76 23 53 86 105 256 274 63 63 33 23 209 232 263 53 62 136 225 228 247 261 276 294 299 285 253 241 245 242 230 215 206 205 204 206 209 212 217 222 216 201 202 213 219 218 223 237 262 285 293 291 280 268 265 277 286 279
329 337 13 336 322 5 25 333 327 71 59 34 77 100 35 335 330 342 310 291 291 311 313 297 97 78 353 334 25 42 7 8 57 68 313 272 30 66 73 256 246 238 268 14 40 9 243 230 230 251 276 295 298 295 278 240 224 227 232 228 219 216 219 218 213 207 204 206 213 215 214 219 224 224 225 233 253 282 299 302 292 268 250 252 271 284 282
349 1 32 25 349 340 58 353 333 34 77 95 159 149 156 212 241 229 224 232 255 302 313 286 127 120 123 311 38 68 245 33 45 354 253 41 41 37 223 230 237 355 26 13 353 323 293 266 257 271 284 284 291 303 293 249 230 240 262 244 216 205 206 209 209 205 201 203 208 210 214 221 227 232 240 255 272 289 301 304 292 262 243 242 258 275 282
68 115 81 76 339 306 96 84 347 19 123 184 191 169 171 197 221 234 242 249 278 297 294 255 142 132 233 274 294 103 119 103 96 248 128 86 69 251 230 208 68 40 35 5 317 271 253 252 259 271 269 268 286 308 297 252 201 166 213 247 242 219 208 208 210 212 212 211 210 209 212 219 226 234 248 262 273 286 302 307 288 249 237 242 252 264 274
67 45 77 88 327 325 55 132 213 209 192 195 191 188 201 223 241 259 272 265 263 279 296 341 72 75 258 228 214 287 315 67 62 278 66 93 145 273 344 45 324 207 138 235 254 247 243 248 254 255 253 257 273 295 293 271 216 186 203 234 254 245 223 214 214 216 216 214 211 212 216 221 225 233 247 261 268 278 297 306 278 233 231 245 253 256 259
106 48 78 114 202 244 213 227 255 271 252 223 210 216 244 297 302 288 281 275 283 298 303 5 54 313 304 350 94 263 288 35 349 268 237 101 102 325 15 17 297 259 187 194 221 234 240 242 239 241 250 255 253 254 265 268 256 235 219 223 236 238 228 219 218 219 216 213 212 215 219 223 227 233 242 254 261 270 288 295 259 223 224 238 245 246 247
96 75 106 149 185 220 212 200 354 331 299 273 268 281 272 276 280 279 275 288 338 328 253 168 154 211 279 308 48 66 266 224 202 274 26 62 135 210 143 161 271 276 246 219 221 234 242 241 240 251 265 267 262 255 251 250 251 247 235 230 234 235 228 224 225 223 216 212 216 222 224 226 229 233 237 245 254 264 280 281 238 216 218 231 241 245 247
72 59 152 147 148 271 258 100 64 321 301 314 325 276 229 234 273 282 272 256 359 7 11 62 116 113 250 329 26 358 269 242 181 123 116 205 200 174 157 205 225 229 231 228 225 232 242 245 246 256 263 265 265 267 262 252 244 241 239 237 238 236 232 230 230 226 219 217 222 227 227 226 228 232 236 241 247 255 270 269 233 216 214 223 233 242 247
39 352 250 208 199 216 212 131 157 237 265 288 281 253 216 212 253 260 239 124 63 39 15 276 224 72 67 96 204 242 255 239 141 137 215 226 191 155 171 226 231 223 229 243 242 238 243 243 232 237 256 265 263 260 259 252 246 245 246 244 240 236 233 234 233 229 225 224 225 226 229 232 234 236 239 243 245 246 252 250 231 217 213 215 222 230 237
161 224 269 266 235 201 181 159 207 230 236 241 239 221 192 209 237 239 199 111 98 161 241 210 142 104 132 198 201 196 342 9 342 239 240 238 211 181 192 220 233 225 228 247 257 254 247 239 227 226 237 247 255 264 270 267 257 251 249 245 239 232 227 227 229 227 224 223 224 228 234 239 241 240 239 238 234 227 231 239 235 222 214 213 216 219 222